Location: Unspecified
(50.0000°N, 15.0000°E)
Time: 03:19:42
(UTC+02:00)

ISS - Pass Details

Date: 24 September 2021
Orbit: 417 x 423 km, 51.6° (Epoch: 27 October)

Event Time Altitude Azimuth Distance (km) Brightness Sun altitude
Rises 20:55:21 0° 277° (W) 2,365 1.4 -19.9°
Reaches altitude 10° 20:57:28 10° 280° (W) 1,502 0.2 -20.2°
Enters shadow 21:00:49 64° 2° (N) 470 -3.5 -20.7°
